Location: Oberkirch
(48.5323°N, 8.0787°E)
Time: 06:13:13
(UTC+00:00)

Transit 2A Rocket - Visible Passes

Search period start: 18 February 2026 00:00
Search period end: 28 February 2026 00:00
Orbit: 582 x 901 km, 66.7° (Epoch: 17 February)

Date Brightness Start Highest point End Pass type
(mag) Time Alt. Az. Time Alt. Az. Time Alt. Az.
18 Feb 7.5 18:52:46 10° NW 18:56:00 15° NNW 18:59:09 10° NNE visible
18 Feb 7.6 20:38:09 10° NNW 20:40:10 13° N 20:40:10 13° N visible
19 Feb 7.5 18:05:44 10° WNW 18:09:41 18° NNW 18:13:32 10° NNE visible
19 Feb 7.5 19:52:07 10° NNW 19:54:32 12° N 19:55:47 12° NNE visible
19 Feb 7.9 21:34:57 10° NNW 21:35:28 12° NNW 21:35:28 12° NNW visible
20 Feb 7.2 17:18:49 10° W 17:23:27 22° NNW 17:27:59 10° NNE visible
20 Feb 7.5 19:05:36 10° NNW 19:08:06 13° N 19:10:33 10° NNE visible
20 Feb 7.6 20:49:23 10° NNW 20:51:05 14° N 20:51:05 14° N visible
21 Feb 7.5 18:18:42 10° NW 18:21:41 14° NNW 18:24:38 10° NNE visible
21 Feb 7.4 20:03:43 10° NNW 20:06:38 14° NNE 20:06:42 14° NNE visible
21 Feb 8.0 21:45:56 10° NNW 21:46:23 12° NNW 21:46:23 12° NNW visible
22 Feb 7.4 17:31:39 10° WNW 17:35:20 17° NNW 17:38:57 10° NNE visible
22 Feb 7.4 19:17:48 10° NNW 19:20:14 13° N 19:22:19 11° NNE visible
22 Feb 7.5 21:00:25 10° NNW 21:02:00 16° N 21:02:00 16° N visible
23 Feb 7.4 18:31:25 10° NNW 18:33:47 12° N 18:36:07 10° NNE visible
23 Feb 7.2 20:14:52 10° NNW 20:17:37 17° N 20:17:37 17° N visible
23 Feb 8.0 21:56:57 10° NNW 21:57:18 12° NNW 21:57:18 12° NNW visible
24 Feb 7.4 17:44:36 10° NW 17:47:22 13° N 17:50:05 10° NNE visible
24 Feb 7.2 19:29:15 10° NNW 19:32:18 14° NNE 19:33:14 14° NNE visible
24 Feb 7.5 21:11:23 10° NNW 21:12:55 17° NNW 21:12:55 17° NNW visible
25 Feb 7.3 18:43:26 10° NNW 18:45:54 13° N 18:48:20 10° NNE visible
25 Feb 7.0 20:25:52 10° NNW 20:28:33 21° N 20:28:33 21° N visible
25 Feb 8.0 22:08:04 10° NW 22:08:14 11° NW 22:08:14 11° NW visible
26 Feb 7.4 17:57:12 10° NNW 17:59:29 12° N 18:01:42 10° NNE visible
26 Feb 6.9 19:40:21 10° NNW 19:44:11 19° NNE 19:44:11 19° NNE visible
26 Feb 7.5 21:22:25 10° NNW 21:23:52 18° NNW 21:23:52 18° NNW visible
27 Feb 7.0 18:54:46 10° NNW 18:57:57 15° NNE 18:59:50 13° NE visible
27 Feb 6.9 20:36:50 10° NNW 20:39:31 25° N 20:39:31 25° N visible
